Simultaneous Nadir Overpasses (SNOs) Predictions

Prediction of SNOs between GOES-17 and LANDSAT-8 Satellite Orbit:

Table of predicted SNOs for the next 14.0 days since TLE Epoch: 2/28/2025
Index Date Time (GOES-17) GOES-17 Lat,Lon LANDSAT-8 Lat,Lon Distance(km) Time Diff (sec)
1 03/02/2025 17:03:45 0.02,-104.42 -0.20,-103.26 131.46 80
2 03/03/2025 05:25:10 -0.02,-104.40 -0.87,-108.46 461.45 80
3 03/04/2025 16:51:34 0.02,-104.43 -0.84,-100.31 467.84 80
4 03/05/2025 05:12:58 -0.02,-104.40 -0.27,-105.50 125.03 80
5 03/07/2025 05:03:26 -0.02,-104.41 0.36,-102.54 211.41 80
6 03/07/2025 17:24:42 0.02,-104.43 0.69,-107.71 372.22 80
7 03/09/2025 17:12:29 0.00,-104.44 0.08,-104.75 35.56 80
8 03/11/2025 16:57:36 0.00,-104.44 -0.58,-101.79 302.14 80
9 03/12/2025 05:18:59 -0.00,-104.42 -0.56,-106.97 290.49 80
10 03/14/2025 05:09:25 0.00,-104.44 0.08,-104.01 48.23 80
